Location: Chuathbaluk
(61.5726°N, 159.2454°W)
Time: 18:35:23
(UTC+00:00)

AO-7 - Visible Passes

Search period start: 16 January 2021 00:00
Search period end: 26 January 2021 00:00
Orbit: 1440 x 1459 km, 101.8° (Epoch: 15 January)

Date Brightness Start Highest point End Pass type
(mag) Time Alt. Az. Time Alt. Az. Time Alt. Az.
16 Jan ? 03:29:32 10° SW 03:35:29 21° W 03:41:30 10° NW visible
16 Jan ? 13:21:55 10° NNE 13:28:54 28° E 13:35:50 10° SE visible
16 Jan ? 15:14:38 10° NNE 15:23:04 75° ESE 15:31:29 10° SSW visible
16 Jan ? 17:07:38 10° NNE 17:15:36 50° NW 17:23:32 10° WSW visible
17 Jan ? 04:27:35 10° W 04:30:00 11° WNW 04:32:26 10° NW visible
17 Jan ? 12:22:59 10° NE 12:27:25 15° ENE 12:31:50 10° ESE visible
17 Jan ? 14:14:39 10° NNE 14:22:40 45° E 14:30:38 10° S visible
17 Jan ? 16:07:38 10° NNE 16:16:01 75° WNW 16:24:22 10° SW visible
17 Jan ? 18:00:27 10° NNE 18:07:53 37° NNW 18:15:20 10° W visible
18 Jan ? 03:22:04 10° SW 03:28:17 23° W 03:34:34 10° NNW visible
18 Jan ? 13:14:56 10° NNE 13:21:44 26° E 13:28:27 10° SE visible
18 Jan ? 15:07:36 10° NNE 15:16:01 71° ESE 15:24:24 10° SSW visible
18 Jan ? 17:00:37 10° NNE 17:08:38 52° NW 17:16:39 10° WSW visible
19 Jan ? 04:19:31 10° W 04:22:44 12° WNW 04:25:59 10° NW visible
19 Jan ? 12:16:15 10° NE 12:20:10 14° ENE 12:24:05 10° E visible
19 Jan ? 14:07:38 10° NNE 14:15:33 43° E 14:23:25 10° SSE visible
19 Jan ? 16:00:36 10° NNE 16:09:01 78° WNW 16:17:23 10° SW visible
19 Jan ? 17:53:27 10° NNE 18:00:58 39° NNW 18:08:28 10° W visible
20 Jan ? 03:14:38 10° SW 03:21:06 24° W 03:27:38 10° NNW visible
20 Jan ? 13:07:59 10° NNE 13:14:33 24° E 13:21:03 10° SE visible
20 Jan ? 15:00:34 10° NNE 15:08:58 67° ESE 15:17:19 10° SSW visible
20 Jan ? 16:53:35 10° NNE 17:01:40 55° NW 17:09:44 10° WSW visible
21 Jan ? 04:11:37 10° W 04:15:28 14° WNW 04:19:21 10° NW visible
21 Jan ? 12:09:36 10° NE 12:12:54 13° ENE 12:16:13 10° E visible
21 Jan ? 14:00:37 10° NNE 14:08:26 40° E 14:16:11 10° SSE visible
21 Jan ? 15:53:34 10° NNE 16:02:00 82° WNW 16:10:23 10° SW visible
21 Jan ? 17:46:27 10° NNE 17:54:02 40° NW 18:01:37 10° W visible
22 Jan ? 03:07:13 10° SW 03:13:55 26° W 03:20:40 10° NNW visible
22 Jan ? 13:01:02 10° NNE 13:07:21 23° E 13:13:38 10° SE visible
22 Jan ? 14:53:32 10° NNE 15:01:54 64° ESE 15:10:12 10° S visible
22 Jan ? 16:46:33 10° NNE 16:54:42 57° NW 17:02:50 10° WSW visible
23 Jan ? 04:03:51 10° WSW 04:08:13 15° WNW 04:12:37 10° NW visible
23 Jan ? 12:03:06 10° NE 12:05:39 11° ENE 12:08:10 10° E visible
23 Jan ? 13:53:36 10° NNE 14:01:18 38° E 14:08:56 10° SSE visible
23 Jan ? 15:46:32 10° NNE 15:54:59 86° WNW 16:03:24 10° SSW visible
23 Jan ? 17:39:26 10° NNE 17:47:06 42° NW 17:54:45 10° WSW visible
24 Jan ? 02:59:51 10° SW 03:06:44 28° W 03:13:43 10° NNW visible
24 Jan ? 12:54:07 10° NE 13:00:09 21° E 13:06:10 10° SE visible
24 Jan ? 14:46:30 10° NNE 14:54:49 60° ESE 15:03:05 10° S visible
24 Jan ? 16:39:32 10° NNE 16:47:44 60° NW 16:55:54 10° SW visible
25 Jan ? 03:56:10 10° WSW 04:00:59 16° WNW 04:05:49 10° NW visible
25 Jan ? 11:57:04 10° ENE 11:58:22 10° ENE 11:59:40 10° ENE visible
25 Jan ? 13:46:37 10° NNE 13:54:10 35° E 14:01:40 10° SSE visible
25 Jan ? 15:39:30 10° NNE 15:47:57 90° ESE 15:56:23 10° SSW visible
25 Jan ? 17:32:26 10° NNE 17:40:10 43° NW 17:47:54 10° WSW visible
